星链-11393 (STARLINK-11393)

导读

STARLINK-11393是美国太空探索技术公司SpaceX星链星座的成员,于2024年11月18日发射。它延续星链低轨互联网星座部署,依托近地轨道部署,可为全球偏远地区、海洋、空中等场景提供低延迟宽带互联网接入服务,进一步扩充了星链星座的服务覆盖能力与通信容量。

基本信息
目录编号:
62016
目录名称:
STARLINK-11393
国际标识:
2024-213J
轨道中心:
EARTH
卫星名称:
星链-11393
卫星全名:
星链-11393 (STARLINK-11393)
卫星状态:
在轨 (已飞行617 天)
发射日期:
2024-11-18 UTC
国别 :
美国 (US)
星等 :
--
轨道信息
数据来源 国际轨道数据
星历时间: 2026-07-27T08:39:34+0800
23小时前
查看轨道信息
半长轴: 6737.77km
偏心率: 0.000136
轨道倾角: 53.157°
近地点辐角 107.231°
升交点赤经 74.092°
平近点角 252.886°
近地点: 358.716km
远地点: 360.55km
周期: 91.735分钟
每日圈数: 15.697429
详细信息
固有亮度:
5
最大亮度:
2.5
卫星平台:
Starlink V1.0
覆盖范围:
全球
运营商:
太空探索技术公司
运营商所在国:
美国
制造商(研发单位):
太空探索技术公司
制造商所在国:
美国
使用方式:
暂无
卫星简介
Starlink 计划是 SpaceX 推出的全球卫星互联网项目,通过发射低轨道卫星,为全球尤其是偏远地区提供高速、低延迟的互联网服务。自 2019 年起,Starlink 已部署数千颗卫星,旨在缩小全球数字鸿沟,推动互联网普及。该项目还为军事、航空等行业提供通信支持,带来广泛经济效益。
2D轨道图
3D轨道图
轨道高度分析图
轨道倾角分析图
轨道综合分析图
查看轨道综合分析图